Weather History for Alturas, CA

Change the Weather History Date:

Saturday, July 27, 2013

  Actual Average Record
Temperature  
Mean Temperature 70 °F 68 °F  
Max Temperature 93 °F 90 °F 102 °F (1934)
Min Temperature 47 °F 45 °F 31 °F (1916)
Degree Days  
Heating Degree Days 0 1  
Month to date heating degree days 4 37  
Since 1 June heating degree days 160 217  
Since 1 July heating degree days 4 37  
Cooling Degree Days 5 3  
Month to date cooling degree days 165 67  
Year to date cooling degree days 208 78  
Since 1 June cooling degree days 208 78  
Growing Degree Days 20 (Base 50)    
Moisture  
Dew Point 45 °F    
Average Humidity 47    
Maximum Humidity 80    
Minimum Humidity 14    
Precipitation  
Precipitation T in 0.02 in 0.20 in (1956)
Month to date precipitation T 0.28  
Year to date precipitation 4.43 8.72  
Sea Level Pressure  
Sea Level Pressure 29.97 in    
Wind  
Wind Speed 5 mph (WNW)    
Max Wind Speed 20 mph    
Max Gust Speed 23 mph    
Visibility 10 miles    
Events Rain , Thunderstorm    
T = Trace of Precipitation, MM = Missing Value Source: NWS Daily Summary

Daily Weather History Graph

Daily Weather History Graph

Search for Another Location

Airport:

Trip Planner

Search our weather history database for the weather conditions in past years. The results will help you decide how hot, cold, wet, or windy it might be!

Date:

Astronomy

Jul. 27, 2013 Rise Set
Actual Time 5:52 AM PDT 8:24 PM PDT
Civil Twilight 5:20 AM PDT 8:56 PM PDT
Nautical Twilight 4:41 AM PDT 9:35 PM PDT
Astronomical Twilight 3:56 AM PDT 10:19 PM PDT
Moon 11:09 PM PDT (7/27) 11:43 AM PDT (7/27)
Length of Visible Light 15h 35m
Length of Day
14h 31m
Waning Gibbous, 70% of the Moon is Illuminated
Jul 27
Waning Gibbous
Jul 29
Last Quarter
Aug 6
New
Aug 14
First Quarter
Aug 20
Full

Hourly Weather History & Observations

Time (PDT) Temp. Dew Point Humidity Pressure Visibility Wind Dir Wind Speed Gust Speed Precip Events Conditions
12:55 AM 61.0 °F 46.9 °F 60% 30.05 in 10.0 mi West 5.8 mph - N/A   Clear
1:55 AM 55.0 °F 44.1 °F 67% 30.06 in 10.0 mi Calm Calm - N/A   Clear
2:55 AM 55.9 °F 46.0 °F 69% 30.07 in 10.0 mi NE 3.5 mph - N/A   Clear
3:55 AM 51.1 °F 44.1 °F 77% 30.09 in 10.0 mi ESE 3.5 mph - N/A   Clear
4:55 AM 51.1 °F 43.0 °F 74% 30.08 in 10.0 mi East 3.5 mph - N/A   Clear
5:55 AM 48.9 °F 43.0 °F 80% 30.10 in 10.0 mi Calm Calm - N/A   Clear
6:55 AM 54.0 °F 46.0 °F 75% 30.09 in 10.0 mi Calm Calm - N/A   Clear
7:55 AM 61.0 °F 46.9 °F 60% 30.08 in 10.0 mi Calm Calm - N/A   Clear
8:55 AM 70.0 °F 48.0 °F 46% 30.06 in 10.0 mi Calm Calm - N/A   Clear
9:55 AM 73.9 °F 46.9 °F 38% 30.03 in 10.0 mi Calm Calm - N/A   Clear
10:55 AM 79.0 °F 45.0 °F 30% 30.00 in 10.0 mi Variable 3.5 mph - N/A   Clear
11:55 AM 84.0 °F 43.0 °F 24% 29.98 in 10.0 mi North 3.5 mph - N/A   Clear
12:55 PM 84.9 °F 42.1 °F 22% 29.96 in 10.0 mi Variable 4.6 mph - N/A   Clear
1:55 PM 89.1 °F 39.0 °F 17% 29.94 in 10.0 mi Calm Calm - N/A   Clear
2:55 PM 91.9 °F 39.9 °F 16% 29.90 in 10.0 mi West 9.2 mph - N/A   Clear
3:55 PM 91.9 °F 39.0 °F 16% 29.88 in 10.0 mi West 10.4 mph 17.3 mph N/A   Partly Cloudy
4:55 PM 91.0 °F 35.1 °F 14% 29.86 in 10.0 mi West 12.7 mph 21.9 mph N/A   Clear
5:55 PM 87.1 °F 36.0 °F 16% 29.86 in 10.0 mi West 13.8 mph - N/A   Clear
6:38 PM 78.8 °F 53.6 °F 42% 29.99 in 9.0 mi WNW 17.3 mph 21.9 mph 0.00 in Rain , Thunderstorm Light Rain
6:53 PM 82.4 °F 50.0 °F 32% 29.98 in 10.0 mi NNW 12.7 mph - 0.00 in Rain Light Rain
6:55 PM 81.0 °F 51.1 °F 35% 29.86 in 10.0 mi NW 12.7 mph - 0.00 in Thunderstorm Scattered Clouds
7:16 PM 80.6 °F 50.0 °F 34% 29.98 in 10.0 mi NW 9.2 mph - N/A   Clear
7:26 PM 78.8 °F 50.0 °F 36% 29.98 in 10.0 mi NW 9.2 mph - N/A Thunderstorm Clear
7:41 PM 78.8 °F 48.2 °F 34% 29.98 in 10.0 mi NW 8.1 mph - N/A   Clear
7:55 PM 80.1 °F 48.0 °F 32% 29.85 in 10.0 mi NW 12.7 mph - N/A   Clear
8:55 PM 73.9 °F 48.0 °F 40% 29.85 in 10.0 mi Calm Calm - N/A   Clear
9:55 PM 71.1 °F 46.9 °F 42% 29.87 in 10.0 mi West 8.1 mph - N/A   Clear
10:55 PM 72.0 °F 43.0 °F 35% 29.86 in 10.0 mi Calm Calm - N/A   Clear
11:55 PM 73.0 °F 41.0 °F 31% 29.86 in 10.0 mi West 6.9 mph - N/A   Mostly Cloudy